Regional Weather Roundup
Issued by NWS Cleveland, OH

Home | Current Version | Previous Version | Text Only | Print | Product List | Glossary Off
Versions: 1 2 3 4 5 6 7 8 9 10 11 12 13 14 15 16 17 18 19 20 21 22 23 24 25 26 27 28 29 30 31 32 33 34 35 36 37 38 39 40 41 42 43 44 45 46 47 48 49 50

000
ASUS41 KCLE 090600
RWRCLE
OHIO REGIONAL WEATHER ROUNDUP
NATIONAL WEATHER SERVICE WILMINGTON, OH
100 AM EST FRI DEC 09 2016

NOTE: "FAIR" INDICATES FEW OR NO CLOUDS BELOW 12,000 FEET WITH NO
SIGNIFICANT WEATHER AND/OR OBSTRUCTIONS TO VISIBILITY.

OHZ001>008-015>018-024>027-034-035-043-044-090700-
   NORTHWEST OHIO

CITY           SKY/WX    TMP DP  RH WIND       PRES   REMARKS
DEFIANCE       FAIR      22  15  75 W8        30.34S WCI  12
FINDLAY        MOCLDY    21  14  74 W18       30.33S WCI   6
TOLEDO EXPRESS CLOUDY    22  18  85 W20       30.30S WCI   7
TOLEDO EXEC    CLOUDY    23  18  81 W16       30.31S WCI  10
LIMA           CLOUDY    20  15  81 W16       30.35R WCI   6
$$

OHZ009>014-019>023-028>033-038-089-090700-
   NORTHEAST OHIO

CITY           SKY/WX    TMP DP  RH WIND       PRES   REMARKS
CLE-HOPKINS    FLURRIES  25  16  68 W18G25    30.29R WCI  11
CLE-LAKEFRONT  CLOUDY    25  19  78 SW23G31   30.25S WCI  10
CUY CO. ARPT   NOT AVBL
LORAIN-ELYRIA  CLOUDY    22  15  75 W17       30.28S WCI   8
ASHTABULA      CLOUDY    24  21  88 SW15      30.18R WCI  11
AKRON-CANTON   LGT SNOW  22  15  75 W12       30.26R WCI  10
WOOSTER        NOT AVBL
MANSFIELD      CLOUDY    20  16  84 SW14      30.28S WCI   7
YOUNGSTOWN     FLURRIES  23  16  74 W16G29    30.19F WCI  10
$$

OHZ042-051>053-060>062-070>072-077>081-090700-
  SOUTHWEST OHIO

CITY           SKY/WX    TMP DP  RH WIND       PRES   REMARKS
CINC-COVINGTON LGT SNOW  22  18  85 NW8       30.45R FOG     WCI  12
CINC-LUNKEN    CLOUDY    24  17  74 N8        30.49R WCI  15
HAMILTON       CLOUDY    23  16  74 W9        30.48R WCI  13
DAYTON         NOT AVBL
WRIGHT-PAT AFB NOT AVBL
DAYTON GENERAL MOCLDY    20  13  74 W12       30.40F WCI   8
WILMINGTON     FAIR      19  13  77 W14       30.39S WCI   6
$$

OHZ036-037-039>041-045>050-054>059-063>069-073>076-082>088-090700-
  CENTRAL AND SOUTHEAST OHIO

CITY           SKY/WX    TMP DP  RH WIND       PRES   REMARKS
COLUMBUS       FLURRIES  22  15  75 W16       30.37R WCI   8
OSU AIRPORT    CLOUDY    21  14  74 W17       30.36R WCI   7
BOLTON FIELD   NOT AVBL
RICKENBACK AFB NOT AVBL
NEWARK         CLOUDY    22  14  71 W9G22     30.35R WCI  12
MARION         CLOUDY    21  14  74 W14G22    30.34R WCI   8
LANCASTER      FLURRIES  22  14  71 W8        30.38R WCI  12
ZANESVILLE     LGT SNOW  23  15  71 W9        30.34S WCI  13
NEW PHILLY     LGT SNOW  22  16  78 W8        30.32S WCI  12
$$



USA.gov is the U.S. government's official web portal to all federal, state and local government web resources and services.